Kirksville, MO

9:51 PM CDT on April 29, 2017 (GMT -0500)
Kirksville Regional

Weather History for KIRK - May, 2014

Change the Weather History Date:

Friday, May 30, 2014

  Actual Average Record
Temperature  
Mean Temperature 73 °F 67 °F  
Max Temperature 84 °F 77 °F 101 °F (1934)
Min Temperature 61 °F 56 °F 40 °F (1984)
Degree Days  
Heating Degree Days 0 2  
Month to date heating degree days 155 149  
Since 1 July heating degree days 6428 5839  
Cooling Degree Days 8 3  
Month to date cooling degree days 107 52  
Year to date cooling degree days 112 59  
Growing Degree Days 22 (Base 50)    
Moisture  
Dew Point 66 °F    
Average Humidity 79    
Maximum Humidity 100    
Minimum Humidity 58    
Precipitation  
Precipitation 0.17 in 0.17 in 1.94 in (2007)
Month to date precipitation 1.49 4.80  
Year to date precipitation 9.09 13.99  
Sea Level Pressure  
Sea Level Pressure 30.07 in    
Wind  
Wind Speed 5 mph (East)    
Max Wind Speed 15 mph    
Max Gust Speed 22 mph    
Visibility 6 miles    
Events Fog , Rain , Thunderstorm    
T = Trace of Precipitation, MM = Missing Value Source: NWS Daily Summary

Daily Weather History Graph

Daily Weather History Graph

Search for Another Location

Airport or City:

Trip Planner

Search our weather history database for the weather conditions in past years. The results will help you decide how hot, cold, wet, or windy it might be!

Date:

Astronomy

May. 30, 2014 Rise Set
Actual Time 5:44 AM CDT 8:31 PM CDT
Civil Twilight 5:12 AM CDT 9:03 PM CDT
Nautical Twilight 4:31 AM CDT 9:44 PM CDT
Astronomical Twilight 3:45 AM CDT 10:30 PM CDT
Moon 7:28 AM CDT 10:08 PM CDT
Length of Visible Light 15h 51m
Length of Day
14h 47m
Waxing Crescent, 4% of the Moon is Illuminated
May 30
Waxing Crescent
Jun 5
First Quarter
Jun 12
Full
Jun 19
Last Quarter
Jun 27
New

Hourly Weather History & Observations

Time (CDT) Temp. Heat Index Dew Point Humidity Pressure Visibility Wind Dir Wind Speed Gust Speed Precip Events Conditions
12:55 AM 69.1 °F - 66.0 °F 90% 30.03 in 8.0 mi East 4.6 mph - N/A   Clear
1:55 AM 69.1 °F - 64.9 °F 87% 30.04 in 7.0 mi East 4.6 mph - N/A   Clear
2:55 AM 66.9 °F - 64.9 °F 93% 30.04 in 5.0 mi Calm Calm - N/A   Clear
3:07 AM 64.9 °F - 63.0 °F 93% 30.05 in 2.0 mi Calm Calm - N/A   Clear
3:28 AM 66.9 °F - 64.9 °F 93% 30.06 in 4.0 mi East 5.8 mph - N/A   Clear
3:55 AM 66.2 °F - 64.4 °F 94% 30.06 in 3.0 mi East 3.5 mph - N/A   Clear
4:10 AM 64.0 °F - 63.0 °F 96% 30.06 in 1.8 mi Calm Calm - N/A   Clear
4:15 AM 64.0 °F - 62.1 °F 93% 30.06 in 0.5 mi NNE 4.6 mph - N/A Fog Fog
4:40 AM 63.0 °F - 63.0 °F 100% 30.07 in 0.5 mi Calm Calm - N/A Fog Fog
4:55 AM 63.0 °F - 62.1 °F 97% 30.05 in 0.2 mi Calm Calm - N/A Fog Fog
5:55 AM 61.0 °F - 60.1 °F 97% 30.06 in 0.2 mi Calm Calm - N/A Fog Fog
6:55 AM 66.2 °F - 64.4 °F 94% 30.08 in 0.2 mi ENE 4.6 mph - N/A Fog Fog
7:55 AM 69.1 °F - 66.9 °F 93% 30.08 in 0.5 mi East 4.6 mph - N/A Fog Fog
8:00 AM 68.0 °F - 66.9 °F 96% 30.09 in 1.0 mi ENE 3.5 mph - N/A   Overcast
8:12 AM 69.1 °F - 66.9 °F 93% 30.09 in 3.0 mi ESE 3.5 mph - N/A   Mostly Cloudy
8:20 AM 69.1 °F - 66.9 °F 93% 30.09 in 4.0 mi Calm Calm - N/A   Scattered Clouds
8:55 AM 75.9 °F - 68.0 °F 76% 30.09 in 8.0 mi NE 5.8 mph - N/A   Clear
9:55 AM 80.1 °F 82.7 °F 68.0 °F 67% 30.10 in 10.0 mi Variable 6.9 mph - N/A   Clear
10:55 AM 79.0 °F - 66.0 °F 64% 30.10 in 10.0 mi East 8.1 mph - N/A   Scattered Clouds
11:17 AM 80.1 °F 82.3 °F 66.9 °F 64% 30.11 in 10.0 mi SE 9.2 mph - N/A   Mostly Cloudy
11:29 AM 81.0 °F 83.0 °F 66.0 °F 60% 30.11 in 10.0 mi ENE 10.4 mph - N/A   Scattered Clouds
11:55 AM 81.0 °F 83.3 °F 66.9 °F 62% 30.10 in 10.0 mi ESE 11.5 mph 16.1 mph N/A   Clear
12:55 PM 80.6 °F 82.7 °F 66.2 °F 61% 30.09 in 10.0 mi Calm Calm - N/A Thunderstorm Mostly Cloudy
1:13 PM 82.9 °F 85.4 °F 66.9 °F 58% 30.09 in 10.0 mi ESE 9.2 mph - N/A   Mostly Cloudy
1:46 PM 81.0 °F 83.3 °F 66.9 °F 62% 30.08 in 10.0 mi SE 12.7 mph - 0.00 in Rain , Thunderstorm Light Rain
1:55 PM 82.0 °F 84.5 °F 66.9 °F 60% 30.07 in 10.0 mi SE 9.2 mph - 0.00 in Thunderstorm Mostly Cloudy
2:29 PM 82.4 °F 84.6 °F 66.2 °F 58% 30.07 in 10.0 mi ESE 11.5 mph - N/A   Mostly Cloudy
2:44 PM 81.0 °F 82.5 °F 64.0 °F 56% 30.07 in 10.0 mi Variable 6.9 mph - N/A Thunderstorm Thunderstorm
2:55 PM 82.0 °F 84.1 °F 66.0 °F 58% 30.06 in 10.0 mi ESE 8.1 mph - N/A Thunderstorm Scattered Clouds
3:34 PM 79.0 °F - 68.0 °F 69% 30.07 in 7.0 mi East 9.2 mph - 0.00 in Rain , Thunderstorm Light Thunderstorms and Rain
3:55 PM 78.8 °F - 68.0 °F 69% 30.08 in 10.0 mi Variable 4.6 mph - N/A Rain , Thunderstorm Light Rain
4:17 PM 80.1 °F 82.7 °F 68.0 °F 67% 30.06 in 10.0 mi ENE 4.6 mph - 0.00 in   Mostly Cloudy
4:33 PM 81.0 °F 83.8 °F 68.0 °F 65% 30.06 in 10.0 mi East 9.2 mph - 0.00 in Thunderstorm Mostly Cloudy
4:41 PM 78.1 °F - 68.0 °F 71% 30.07 in 2.5 mi ESE 13.8 mph 21.9 mph 0.00 in Rain , Thunderstorm Thunderstorms and Rain
5:02 PM 75.0 °F - 68.0 °F 79% 30.08 in 10.0 mi SE 12.7 mph - 0.00 in Thunderstorm Mostly Cloudy
5:41 PM 72.0 °F - 66.9 °F 84% 30.07 in 10.0 mi SSE 3.5 mph - 0.00 in   Scattered Clouds
5:55 PM 72.0 °F - 66.9 °F 84% 30.06 in 10.0 mi SE 5.8 mph - 0.00 in   Scattered Clouds
6:55 PM 73.0 °F - 66.0 °F 79% 30.05 in 10.0 mi East 3.5 mph - 0.00 in   Scattered Clouds
7:55 PM 72.0 °F - 66.9 °F 84% 30.05 in 8.0 mi East 4.6 mph - N/A   Clear
8:55 PM 70.0 °F - 66.0 °F 87% 30.05 in 7.0 mi East 5.8 mph - N/A   Clear
9:55 PM 70.0 °F - 66.9 °F 90% 30.06 in 5.0 mi ESE 5.8 mph - N/A   Clear
10:55 PM 69.1 °F - 66.0 °F 90% 30.08 in 6.0 mi ESE 3.5 mph - N/A   Clear
11:52 PM 66.2 °F - 64.4 °F 94% 30.09 in 2.5 mi Calm Calm - N/A   Clear
11:55 PM 66.0 °F - 64.0 °F 93% 30.08 in 3.0 mi Calm Calm - N/A   Clear